Weather History for LTBA - June, 2013

Change the Weather History Date:

Friday, June 28, 2013

  Actual Average Record
Temperature  
Mean Temperature 76 °F -  
Max Temperature 79 °F 83 °F - ()
Min Temperature 73 °F 69 °F - ()
Cooling Degree Days 11    
Growing Degree Days 26 (Base 50)    
Moisture  
Dew Point 66 °F    
Average Humidity 72    
Maximum Humidity 83    
Minimum Humidity 55    
Precipitation  
Precipitation 0.00 in - - ()
Sea Level Pressure  
Sea Level Pressure 29.89 in    
Wind  
Wind Speed 13 mph ()    
Max Wind Speed 25 mph    
Max Gust Speed -    
Visibility 6.5 miles    
Events      
T = Trace of Precipitation, MM = Missing Value Source: Averaged Metar Reports

Daily Weather History Graph

Daily Weather History Graph

Search for Another Location

Airport or City:

Trip Planner

Search our weather history database for the weather conditions in past years. The results will help you decide how hot, cold, wet, or windy it might be!

Date:

Astronomy

Jun. 28, 2013 Rise Set
Actual Time 5:35 AM EEST 8:40 PM EEST
Civil Twilight 5:01 AM EEST 9:14 PM EEST
Nautical Twilight 4:18 AM EEST 9:57 PM EEST
Astronomical Twilight 3:27 AM EEST 10:47 PM EEST
Moon 11:56 PM EEST (6/28) 11:23 AM EEST (6/28)
Length of Visible Light 16h 12m
Length of Day
15h 05m
Waning Gibbous, 69% of the Moon is Illuminated
Jun 28
Waning Gibbous
Jun 30
Last Quarter
Jul 8
New
Jul 16
First Quarter
Jul 22
Full

Hourly Weather History & Observations

Time (EEST) Temp. Dew Point Humidity Pressure Visibility Wind Dir Wind Speed Gust Speed Precip Events Conditions
12:20 AM 77.0 °F 66.2 °F 69% 29.89 in - NNE 10.4 mph - N/A   Clear
12:50 AM 75.2 °F 66.2 °F 73% 29.89 in - NNE 10.4 mph - N/A   Clear
1:20 AM 77.0 °F 66.2 °F 69% 29.89 in - ENE 5.8 mph - N/A   Clear
1:50 AM 77.0 °F 66.2 °F 69% 29.89 in - East 4.6 mph - N/A   Clear
2:20 AM 75.2 °F 66.2 °F 73% 29.89 in - NE 8.1 mph - N/A   Clear
2:50 AM 75.2 °F 68.0 °F 78% 29.89 in - North 9.2 mph - N/A   Clear
3:00 AM 75 °F 67 °F 71% 29.89 in 12 mi North 9.2 mph - -  
3:20 AM 75.2 °F 68.0 °F 78% 29.89 in - North 9.2 mph - N/A   Clear
3:50 AM 73.4 °F 68.0 °F 83% 29.89 in - North 6.9 mph - N/A   Clear
4:20 AM 75.2 °F 69.8 °F 83% 29.89 in - North 11.5 mph - N/A   Clear
4:50 AM 75.2 °F 68.0 °F 78% 29.86 in - North 13.8 mph - N/A   Clear
5:20 AM 73.4 °F 66.2 °F 78% 29.86 in - North 18.4 mph - N/A   Clear
5:50 AM 73.4 °F 66.2 °F 78% 29.89 in - North 19.6 mph - N/A   Clear
6:20 AM 73.4 °F 66.2 °F 78% 29.86 in 6.2 mi North 18.4 mph - N/A   Scattered Clouds
6:50 AM 73.4 °F 66.2 °F 78% 29.89 in 6.2 mi North 17.3 mph - N/A   Scattered Clouds
7:20 AM 75.2 °F 66.2 °F 73% 29.89 in 6.2 mi North 18.4 mph - N/A   Scattered Clouds
7:50 AM 75.2 °F 66.2 °F 73% 29.89 in 6.2 mi North 19.6 mph - N/A   Scattered Clouds
8:20 AM 75.2 °F 66.2 °F 73% 29.89 in 6.2 mi North 17.3 mph - N/A   Mostly Cloudy
8:50 AM 75.2 °F 66.2 °F 73% 29.89 in 6.2 mi North 21.9 mph - N/A   Mostly Cloudy
9:20 AM 75.2 °F 66.2 °F 73% 29.89 in 6.2 mi North 20.7 mph - N/A   Scattered Clouds
9:50 AM 75.2 °F 66.2 °F 73% 29.89 in 6.2 mi North 23.0 mph - N/A   Mostly Cloudy
10:20 AM 75.2 °F 64.4 °F 69% 29.89 in 6.2 mi North 24.2 mph - N/A   Scattered Clouds
10:50 AM 77.0 °F 66.2 °F 69% 29.89 in 6.2 mi North 19.6 mph - N/A   Scattered Clouds
11:20 AM 75.2 °F 64.4 °F 69% 29.89 in 6.2 mi North 18.4 mph - N/A   Scattered Clouds
11:50 AM 75.2 °F 64.4 °F 69% 29.89 in 6.2 mi NNW 20.7 mph - N/A   Mostly Cloudy
12:20 PM 75.2 °F 64.4 °F 69% 29.92 in 6.2 mi NNW 20.7 mph - N/A   Scattered Clouds
12:50 PM 73.4 °F 64.4 °F 73% 29.92 in 6.2 mi NW 19.6 mph - N/A   Scattered Clouds
1:20 PM 77.0 °F 64.4 °F 65% 29.89 in 6.2 mi North 23.0 mph - N/A   Scattered Clouds
1:50 PM 75.2 °F 64.4 °F 69% 29.89 in 6.2 mi NNW 25.3 mph - N/A   Scattered Clouds
2:20 PM 77.0 °F 64.4 °F 65% 29.89 in 6.2 mi North 25.3 mph - N/A   Scattered Clouds
2:50 PM 77.0 °F 64.4 °F 65% 29.89 in 6.2 mi North 20.7 mph - N/A   Scattered Clouds
3:00 PM 78 °F 65 °F 55% 29.89 in 12 mi North 20.7 mph - -   Partly Cloudy
3:20 PM 77.0 °F 64.4 °F 65% 29.89 in 6.2 mi North 21.9 mph - N/A   Scattered Clouds
3:50 PM 78.8 °F 66.2 °F 65% 29.89 in 6.2 mi North 18.4 mph - N/A   Scattered Clouds
4:20 PM 77.0 °F 64.4 °F 65% 29.89 in 6.2 mi North 20.7 mph - N/A   Scattered Clouds
4:50 PM 77.0 °F 66.2 °F 69% 29.89 in 6.2 mi North 20.7 mph - N/A   Scattered Clouds
5:20 PM 77.0 °F 64.4 °F 65% 29.86 in 6.2 mi North 18.4 mph - N/A   Scattered Clouds
5:50 PM 78.8 °F 66.2 °F 65% 29.89 in 6.2 mi North 17.3 mph - N/A   Scattered Clouds
6:20 PM 77.0 °F 66.2 °F 69% 29.89 in 6.2 mi North 16.1 mph - N/A   Scattered Clouds
6:50 PM 77.0 °F 66.2 °F 69% 29.86 in 6.2 mi North 15.0 mph - N/A   Scattered Clouds
7:20 PM 77.0 °F 66.2 °F 69% 29.86 in 6.2 mi North 15.0 mph - N/A   Scattered Clouds
7:50 PM 75.2 °F 66.2 °F 73% 29.86 in 6.2 mi North 15.0 mph - N/A   Scattered Clouds
8:20 PM 75.2 °F 66.2 °F 73% 29.86 in 6.2 mi North 15.0 mph - N/A   Scattered Clouds
8:50 PM 77.0 °F 66.2 °F 69% 29.86 in 6.2 mi North 11.5 mph - N/A   Scattered Clouds
9:00 PM 76 °F 67 °F 68% 29.88 in 6 mi North 11.5 mph - -   Mostly Cloudy
9:20 PM 75.2 °F 66.2 °F 73% 29.86 in 6.2 mi North 11.5 mph - N/A   Scattered Clouds
9:50 PM 75.2 °F 66.2 °F 73% 29.89 in 6.2 mi North 11.5 mph - N/A   Scattered Clouds
10:20 PM 75.2 °F 68.0 °F 78% 29.89 in 6.2 mi North 9.2 mph - N/A   Scattered Clouds
10:50 PM 75.2 °F 68.0 °F 78% 29.89 in 6.2 mi North 11.5 mph - N/A   Scattered Clouds
11:20 PM 75.2 °F 68.0 °F 78% 29.89 in 6.2 mi NNE 6.9 mph - N/A   Scattered Clouds
11:50 PM 75.2 °F 68.0 °F 78% 29.89 in 6.2 mi North 6.9 mph - N/A   Scattered Clouds